sat.trackr.live / text

‹ back to catalog

FENGYUN 3G

NORAD 56232 · 2023-055A

PAYLOAD ACTIVE UNKNOWN

§ Identity

Operator
Country
PRC
Launch date
2023-04-16
Launch site
JSC
Launch vehicle
Mass (kg)
RCS (m²)

Purposes: earth_obs

External: N2YO · Heavens-Above · Gunter

§ Orbital elements

Epoch: 2026-09-20T04:43:30.110592Z

Period
92.67 min
Inclination
49.9912°
Eccentricity
0.0011351
Mean motion
15.53832195 rev/d
Perigee alt
397.8 km
Apogee alt
413.2 km
Semi-major
6,783.7 km
B*
2.9446e-4
RAAN
216.1012°
Arg perigee
56.4649°
Mean anomaly
303.7401°
Rev number
19,477

§ Raw data

FENGYUN 3G1 56232U 23055A   26263.19687628  .00018928  00000+0  29446-3 0  99942 56232  49.9912 216.1012 0011351  56.4649 303.7401 15.53832195194770

JSON: /api/v1/satellites/56232 · /tle

For live sub-satellite position, see the globe view (requires WebGL).

§ Visibility from observer

Set your observer location to see the next 7 days of passes ≥ 10°. The values pass through the URL so the page stays shareable.

No JS? Fill the form by hand. The geolocation button needs JavaScript.